San Jose, Costa Rica

11:57 PM CST on March 24, 2017 (GMT -0600)
Juan Santamaria International Airport

Weather History for MROC - February, 2013

Change the Weather History Date:

Friday, February 8, 2013

  Actual Average Record
Temperature  
Mean Temperature 74 °F -  
Max Temperature 85 °F 82 °F 89 °F (1998)
Min Temperature 63 °F 64 °F 62 °F (1998)
Cooling Degree Days 9    
Growing Degree Days 24 (Base 50)    
Moisture  
Dew Point 54 °F    
Average Humidity 50    
Maximum Humidity 73    
Minimum Humidity 21    
Precipitation  
Precipitation 0.00 in 0.01 in - ()
Sea Level Pressure  
Sea Level Pressure 29.97 in    
Wind  
Wind Speed 11 mph ()    
Max Wind Speed 15 mph    
Max Gust Speed 23 mph    
Visibility 9.1 miles    
Events      
Averages and records for this station are not official NWS values.
T = Trace of Precipitation, MM = Missing Value Source: Averaged Metar Reports

Daily Weather History Graph

Daily Weather History Graph

Search for Another Location

Airport or City:

Trip Planner

Search our weather history database for the weather conditions in past years. The results will help you decide how hot, cold, wet, or windy it might be!

Date:

Astronomy

Feb. 08, 2013 Rise Set
Actual Time 5:58 AM CST 5:44 PM CST
Civil Twilight 5:36 AM CST 6:05 PM CST
Nautical Twilight 5:11 AM CST 6:30 PM CST
Astronomical Twilight 4:46 AM CST 6:55 PM CST
Moon 4:17 AM CST (2/8) 4:20 PM CST (2/8)
Length of Visible Light 12h 29m
Length of Day
11h 45m
Waning Crescent, 3% of the Moon is Illuminated
Feb 8
Waning Crescent
Feb 10
New
Feb 17
First Quarter
Feb 25
Full
Mar 4
Last Quarter

Hourly Weather History & Observations

Time (CST) Temp. Heat Index Dew Point Humidity Pressure Visibility Wind Dir Wind Speed Gust Speed Precip Events Conditions
12:00 AM 68 °F - 54 °F 52% 29.82 in 12 mi ENE 13.8 mph - -  
12:00 AM 68.0 °F - 53.6 °F 60% 30.00 in - ENE 13.8 mph - N/A   Clear
1:00 AM 66.2 °F - 53.6 °F 64% 30.00 in - ENE 13.8 mph - N/A   Clear
2:00 AM 66.2 °F - 53.6 °F 64% 30.00 in - East 11.5 mph - N/A   Clear
3:00 AM 66 °F - 55 °F 60% 29.81 in 12 mi ENE 9.2 mph - -  
3:00 AM 66.2 °F - 55.4 °F 68% 29.98 in - ENE 9.2 mph - N/A   Clear
4:00 AM 66.2 °F - 55.4 °F 68% 29.99 in - ENE 12.7 mph - N/A   Clear
5:00 AM 64.4 °F - 55.4 °F 73% 30.00 in - NE 15.0 mph - N/A   Clear
6:00 AM 64 °F - 53 °F 59% 29.89 in 12 mi NE 12.7 mph - -   Clear
6:00 AM 64.4 °F - 53.6 °F 68% 30.01 in - NE 12.7 mph - N/A   Clear
7:00 AM 69.8 °F - 53.6 °F 56% 30.03 in - NE 11.5 mph - N/A   Clear
8:00 AM 73.4 °F - 55.4 °F 53% 30.04 in - East 11.5 mph - N/A   Clear
9:00 AM 76 °F - 55 °F 38% 29.91 in 12 mi East 11.5 mph - -   Clear
9:00 AM 77.0 °F - 55.4 °F 47% 30.06 in - East 11.5 mph 23.0 mph N/A   Clear
10:00 AM 78.8 °F - 53.6 °F 42% 30.05 in - East 13.8 mph - N/A   Clear
11:00 AM 80.6 °F - 51.8 °F 37% 30.04 in 6.2 mi East 11.5 mph 23.0 mph N/A   Scattered Clouds
12:00 PM 82 °F - 53 °F 27% 29.85 in 12 mi ESE 13.8 mph - -   Scattered Clouds
12:00 PM 82.4 °F 81.4 °F 53.6 °F 37% 30.02 in 6.2 mi ESE 13.8 mph - N/A   Scattered Clouds
1:00 PM 84.2 °F 82.8 °F 53.6 °F 35% 29.99 in 6.2 mi East 13.8 mph - N/A   Scattered Clouds
2:00 PM 84.2 °F - 51.8 °F 33% 29.97 in 6.2 mi East 11.5 mph 23.0 mph N/A   Scattered Clouds
3:00 PM 84 °F - 51 °F 21% 29.79 in 12 mi East 10.4 mph - -   Scattered Clouds
3:00 PM 84.2 °F - 50.0 °F 30% 29.95 in 6.2 mi East 10.4 mph - N/A   Scattered Clouds
4:00 PM 80.6 °F 80.5 °F 55.4 °F 42% 29.95 in 6.2 mi ENE 11.5 mph - N/A   Scattered Clouds
5:00 PM 78.8 °F - 55.4 °F 44% 29.96 in 6.2 mi ENE 11.5 mph - N/A   Scattered Clouds
6:00 PM 74 °F - 54 °F 40% 29.86 in 12 mi ENE 11.5 mph - -   Scattered Clouds
6:00 PM 75.2 °F - 53.6 °F 47% 29.97 in 6.2 mi ENE 11.5 mph - N/A   Scattered Clouds
7:00 PM 73.4 °F - 53.6 °F 50% 29.99 in - ENE 15.0 mph - N/A   Clear
8:00 PM 71.6 °F - 53.6 °F 53% 30.02 in - East 9.2 mph - N/A   Clear
9:00 PM 70 °F - 55 °F 50% 29.87 in 12 mi East 12.7 mph - -  
9:00 PM 69.8 °F - 55.4 °F 60% 30.03 in - East 12.7 mph - N/A   Clear
10:00 PM 68.0 °F - 57.2 °F 68% 30.04 in - East 10.4 mph - N/A   Clear
11:00 PM 68.0 °F - 55.4 °F 64% 30.03 in - East 11.5 mph 23.0 mph N/A   Clear